Hourly Data Report for July 10, 2021

VINELAND STATION RCS
ONTARIO
Current Station Operator: ECCC - MSC

43°11'00.000" N
79°24'00.000" W
79.20 m
6139148
71171
XVN

Download Data

Hourly Data (July 2021)
Hourly Data Report for July 10, 2021
TIME
LST
Temp Definition
°C
Dew Point Definition
°C
Rel Hum Definition
%
Precip. Amount Definition
mm

Wind Dir Definition
10's deg

Wind Spd Definition
km/h
Visibility Definition
km
Stn Press Definition
kPa
Hmdx Definition


Wind Chill Definition


Weather Definition


00:00 17.8 15.4 86 LegendMM 31 7   100.75     LegendNANA
01:00 17.7 15.3 86 LegendMM 30 5   100.72     LegendNANA
02:00 17.6 14.9 84 LegendMM 33 10   100.71     LegendNANA
03:00 17.4 14.7 84 LegendMM 35 7   100.71     LegendNANA
04:00 17.2 14.7 86 LegendMM 30 4   100.78     LegendNANA
05:00 17.1 14.5 85 LegendMM 33 5   100.79     LegendNANA
06:00 17.1 14.5 85 LegendMM 35 4   100.79     LegendNANA
07:00 17.7 14.2 80 LegendMM 26 1   100.81     LegendNANA
08:00 18.7 14.4 76 LegendMM 35 6   100.90     LegendNANA
09:00 18.7 14.6 77 LegendMM 33 10   100.94     LegendNANA
10:00 19.4 14.8 75 LegendMM 34 9   100.94     LegendNANA
11:00 20.3 14.5 69 LegendMM 1 6   100.93     LegendNANA
12:00 20.9 14.9 69 LegendMM 1 6   100.90 25   LegendNANA
13:00 21.6 14.8 65 LegendMM 36 7   100.91 25   LegendNANA
14:00 21.9 14.4 62 LegendMM 1 7   100.84 26   LegendNANA
15:00 22.4 13.6 58 LegendMM 4 7   100.80 26   LegendNANA
16:00 22.2 13.6 58 LegendMM 6 7   100.73 25   LegendNANA
17:00 23.4 13.1 52 LegendMM 2 5   100.72 26   LegendNANA
18:00 22.8 12.1 51 LegendMM 4 6   100.68 25   LegendNANA
19:00 21.3 14.0 63 LegendMM 3 5   100.69 25   LegendNANA
20:00 19.8 15.6 76 LegendMM 5 5   100.69     LegendNANA
21:00 19.5 15.9 80 LegendMM 7 4   100.72     LegendNANA
22:00 17.8 16.0 89 LegendMM 10 2   100.74     LegendNANA
23:00 17.4 15.6 89 LegendMM 19 4   100.77     LegendNANA

Notes on Data Quality.

Legend

  • E = Estimated
  • M = Missing
  • NA = Not Available*
  • [empty] = Indicates an unobserved value
Date modified: